Index of /20260427/WXO-DD/model_rdps/10km/18/075
Name Last modified Size Description
Parent Directory -
20260427T18Z_MSC_RDPS_AbsoluteVorticity_IsbL-0250_RLatLon0.09_PT075H.grib2 2026-04-27 21:02 502K
20260427T18Z_MSC_RDPS_AbsoluteVorticity_IsbL-0500_RLatLon0.09_PT075H.grib2 2026-04-27 21:02 570K
20260427T18Z_MSC_RDPS_AbsoluteVorticity_IsbL-0700_RLatLon0.09_PT075H.grib2 2026-04-27 21:02 625K
20260427T18Z_MSC_RDPS_AbsoluteVorticity_IsbL-0850_RLatLon0.09_PT075H.grib2 2026-04-27 21:02 773K
20260427T18Z_MSC_RDPS_AirTemp_AGL-120m_RLatLon0.09_PT075H.grib2 2026-04-27 21:02 393K
20260427T18Z_MSC_RDPS_AirTemp_AGL-2m_RLatLon0.09_PT075H.grib2 2026-04-27 21:02 626K
20260427T18Z_MSC_RDPS_AirTemp_AGL-40m_RLatLon0.09_PT075H.grib2 2026-04-27 21:02 403K
20260427T18Z_MSC_RDPS_AirTemp_AGL-80m_RLatLon0.09_PT075H.grib2 2026-04-27 21:02 397K
20260427T18Z_MSC_RDPS_AirTemp_IsbL-0001_RLatLon0.09_PT075H.grib2 2026-04-27 21:02 279K
20260427T18Z_MSC_RDPS_AirTemp_IsbL-0005_RLatLon0.09_PT075H.grib2 2026-04-27 21:02 292K
20260427T18Z_MSC_RDPS_AirTemp_IsbL-0010_RLatLon0.09_PT075H.grib2 2026-04-27 21:02 306K
20260427T18Z_MSC_RDPS_AirTemp_IsbL-0020_RLatLon0.09_PT075H.grib2 2026-04-27 21:02 323K
20260427T18Z_MSC_RDPS_AirTemp_IsbL-0030_RLatLon0.09_PT075H.grib2 2026-04-27 21:02 345K
20260427T18Z_MSC_RDPS_AirTemp_IsbL-0050_RLatLon0.09_PT075H.grib2 2026-04-27 21:02 314K
20260427T18Z_MSC_RDPS_AirTemp_IsbL-0100_RLatLon0.09_PT075H.grib2 2026-04-27 21:02 390K
20260427T18Z_MSC_RDPS_AirTemp_IsbL-0150_RLatLon0.09_PT075H.grib2 2026-04-27 21:02 423K
20260427T18Z_MSC_RDPS_AirTemp_IsbL-0175_RLatLon0.09_PT075H.grib2 2026-04-27 21:02 412K
20260427T18Z_MSC_RDPS_AirTemp_IsbL-0200_RLatLon0.09_PT075H.grib2 2026-04-27 21:02 416K
20260427T18Z_MSC_RDPS_AirTemp_IsbL-0225_RLatLon0.09_PT075H.grib2 2026-04-27 21:02 418K
20260427T18Z_MSC_RDPS_AirTemp_IsbL-0250_RLatLon0.09_PT075H.grib2 2026-04-27 21:02 426K
20260427T18Z_MSC_RDPS_AirTemp_IsbL-0275_RLatLon0.09_PT075H.grib2 2026-04-27 21:02 404K
20260427T18Z_MSC_RDPS_AirTemp_IsbL-0300_RLatLon0.09_PT075H.grib2 2026-04-27 21:02 435K
20260427T18Z_MSC_RDPS_AirTemp_IsbL-0350_RLatLon0.09_PT075H.grib2 2026-04-27 21:02 423K
20260427T18Z_MSC_RDPS_AirTemp_IsbL-0400_RLatLon0.09_PT075H.grib2 2026-04-27 21:02 391K
20260427T18Z_MSC_RDPS_AirTemp_IsbL-0450_RLatLon0.09_PT075H.grib2 2026-04-27 21:02 398K
20260427T18Z_MSC_RDPS_AirTemp_IsbL-0500_RLatLon0.09_PT075H.grib2 2026-04-27 21:02 408K
20260427T18Z_MSC_RDPS_AirTemp_IsbL-0550_RLatLon0.09_PT075H.grib2 2026-04-27 21:02 427K
20260427T18Z_MSC_RDPS_AirTemp_IsbL-0600_RLatLon0.09_PT075H.grib2 2026-04-27 21:02 448K
20260427T18Z_MSC_RDPS_AirTemp_IsbL-0650_RLatLon0.09_PT075H.grib2 2026-04-27 21:02 360K
20260427T18Z_MSC_RDPS_AirTemp_IsbL-0700_RLatLon0.09_PT075H.grib2 2026-04-27 21:02 381K
20260427T18Z_MSC_RDPS_AirTemp_IsbL-0750_RLatLon0.09_PT075H.grib2 2026-04-27 21:02 411K
20260427T18Z_MSC_RDPS_AirTemp_IsbL-0800_RLatLon0.09_PT075H.grib2 2026-04-27 21:02 446K
20260427T18Z_MSC_RDPS_AirTemp_IsbL-0850_RLatLon0.09_PT075H.grib2 2026-04-27 21:02 498K
20260427T18Z_MSC_RDPS_AirTemp_IsbL-0875_RLatLon0.09_PT075H.grib2 2026-04-27 21:02 521K
20260427T18Z_MSC_RDPS_AirTemp_IsbL-0900_RLatLon0.09_PT075H.grib2 2026-04-27 21:02 533K
20260427T18Z_MSC_RDPS_AirTemp_IsbL-0925_RLatLon0.09_PT075H.grib2 2026-04-27 21:02 531K
20260427T18Z_MSC_RDPS_AirTemp_IsbL-0950_RLatLon0.09_PT075H.grib2 2026-04-27 21:02 532K
20260427T18Z_MSC_RDPS_AirTemp_IsbL-0970_RLatLon0.09_PT075H.grib2 2026-04-27 21:02 524K
20260427T18Z_MSC_RDPS_AirTemp_IsbL-0985_RLatLon0.09_PT075H.grib2 2026-04-27 21:02 525K
20260427T18Z_MSC_RDPS_AirTemp_IsbL-1000_RLatLon0.09_PT075H.grib2 2026-04-27 21:02 515K
20260427T18Z_MSC_RDPS_AirTemp_IsbL-1015_RLatLon0.09_PT075H.grib2 2026-04-27 21:02 509K
20260427T18Z_MSC_RDPS_Albedo_Sfc_RLatLon0.09_PT075H.grib2 2026-04-27 21:02 162K
20260427T18Z_MSC_RDPS_CAPE_Sfc_RLatLon0.09_PT075H.grib2 2026-04-27 21:02 1.7M
20260427T18Z_MSC_RDPS_CIN_Sfc_RLatLon0.09_PT075H.grib2 2026-04-27 21:02 1.2M
20260427T18Z_MSC_RDPS_CloudWater_EAtm_RLatLon0.09_PT075H.grib2 2026-04-27 21:02 224K
20260427T18Z_MSC_RDPS_ConvectivePrecip-Accum_Sfc_RLatLon0.09_PT075H.grib2 2026-04-27 21:02 1.3M
20260427T18Z_MSC_RDPS_DewPointDepression_AGL-2m_RLatLon0.09_PT075H.grib2 2026-04-27 21:02 418K
20260427T18Z_MSC_RDPS_DewPointDepression_IsbL-0001_RLatLon0.09_PT075H.grib2 2026-04-27 21:02 193
20260427T18Z_MSC_RDPS_DewPointDepression_IsbL-0005_RLatLon0.09_PT075H.grib2 2026-04-27 21:02 193
20260427T18Z_MSC_RDPS_DewPointDepression_IsbL-0010_RLatLon0.09_PT075H.grib2 2026-04-27 21:02 193
20260427T18Z_MSC_RDPS_DewPointDepression_IsbL-0020_RLatLon0.09_PT075H.grib2 2026-04-27 21:02 193
20260427T18Z_MSC_RDPS_DewPointDepression_IsbL-0030_RLatLon0.09_PT075H.grib2 2026-04-27 21:02 193
20260427T18Z_MSC_RDPS_DewPointDepression_IsbL-0050_RLatLon0.09_PT075H.grib2 2026-04-27 21:02 82K
20260427T18Z_MSC_RDPS_DewPointDepression_IsbL-0100_RLatLon0.09_PT075H.grib2 2026-04-27 21:02 124K
20260427T18Z_MSC_RDPS_DewPointDepression_IsbL-0150_RLatLon0.09_PT075H.grib2 2026-04-27 21:02 149K
20260427T18Z_MSC_RDPS_DewPointDepression_IsbL-0175_RLatLon0.09_PT075H.grib2 2026-04-27 21:02 181K
20260427T18Z_MSC_RDPS_DewPointDepression_IsbL-0200_RLatLon0.09_PT075H.grib2 2026-04-27 21:02 220K
20260427T18Z_MSC_RDPS_DewPointDepression_IsbL-0225_RLatLon0.09_PT075H.grib2 2026-04-27 21:02 264K
20260427T18Z_MSC_RDPS_DewPointDepression_IsbL-0250_RLatLon0.09_PT075H.grib2 2026-04-27 21:02 302K
20260427T18Z_MSC_RDPS_DewPointDepression_IsbL-0275_RLatLon0.09_PT075H.grib2 2026-04-27 21:02 309K
20260427T18Z_MSC_RDPS_DewPointDepression_IsbL-0300_RLatLon0.09_PT075H.grib2 2026-04-27 21:02 328K
20260427T18Z_MSC_RDPS_DewPointDepression_IsbL-0350_RLatLon0.09_PT075H.grib2 2026-04-27 21:02 331K
20260427T18Z_MSC_RDPS_DewPointDepression_IsbL-0400_RLatLon0.09_PT075H.grib2 2026-04-27 21:02 341K
20260427T18Z_MSC_RDPS_DewPointDepression_IsbL-0450_RLatLon0.09_PT075H.grib2 2026-04-27 21:02 349K
20260427T18Z_MSC_RDPS_DewPointDepression_IsbL-0500_RLatLon0.09_PT075H.grib2 2026-04-27 21:02 355K
20260427T18Z_MSC_RDPS_DewPointDepression_IsbL-0550_RLatLon0.09_PT075H.grib2 2026-04-27 21:02 368K
20260427T18Z_MSC_RDPS_DewPointDepression_IsbL-0600_RLatLon0.09_PT075H.grib2 2026-04-27 21:02 383K
20260427T18Z_MSC_RDPS_DewPointDepression_IsbL-0650_RLatLon0.09_PT075H.grib2 2026-04-27 21:02 392K
20260427T18Z_MSC_RDPS_DewPointDepression_IsbL-0700_RLatLon0.09_PT075H.grib2 2026-04-27 21:02 403K
20260427T18Z_MSC_RDPS_DewPointDepression_IsbL-0750_RLatLon0.09_PT075H.grib2 2026-04-27 21:02 424K
20260427T18Z_MSC_RDPS_DewPointDepression_IsbL-0800_RLatLon0.09_PT075H.grib2 2026-04-27 21:02 449K
20260427T18Z_MSC_RDPS_DewPointDepression_IsbL-0850_RLatLon0.09_PT075H.grib2 2026-04-27 21:02 478K
20260427T18Z_MSC_RDPS_DewPointDepression_IsbL-0875_RLatLon0.09_PT075H.grib2 2026-04-27 21:02 483K
20260427T18Z_MSC_RDPS_DewPointDepression_IsbL-0900_RLatLon0.09_PT075H.grib2 2026-04-27 21:02 475K
20260427T18Z_MSC_RDPS_DewPointDepression_IsbL-0925_RLatLon0.09_PT075H.grib2 2026-04-27 21:02 458K
20260427T18Z_MSC_RDPS_DewPointDepression_IsbL-0950_RLatLon0.09_PT075H.grib2 2026-04-27 21:02 448K
20260427T18Z_MSC_RDPS_DewPointDepression_IsbL-0970_RLatLon0.09_PT075H.grib2 2026-04-27 21:02 436K
20260427T18Z_MSC_RDPS_DewPointDepression_IsbL-0985_RLatLon0.09_PT075H.grib2 2026-04-27 21:02 432K
20260427T18Z_MSC_RDPS_DewPointDepression_IsbL-1000_RLatLon0.09_PT075H.grib2 2026-04-27 21:02 428K
20260427T18Z_MSC_RDPS_DewPointDepression_IsbL-1015_RLatLon0.09_PT075H.grib2 2026-04-27 21:02 418K
20260427T18Z_MSC_RDPS_DewPoint_AGL-2m_RLatLon0.09_PT075H.grib2 2026-04-27 21:02 311K
20260427T18Z_MSC_RDPS_DownwardLongwaveRadiationFlux-Accum_Sfc_RLatLon0.09_PT075H.grib2 2026-04-27 21:02 428K
20260427T18Z_MSC_RDPS_DownwardShortwaveRadiationFlux-Accum_NTAtm_RLatLon0.09_PT075H.grib2 2026-04-27 21:02 114K
20260427T18Z_MSC_RDPS_DownwardShortwaveRadiationFlux-Accum_Sfc_RLatLon0.09_PT075H.grib2 2026-04-27 21:02 628K
20260427T18Z_MSC_RDPS_FreezingRain-Accum1h_Sfc_RLatLon0.09_PT075H.grib2 2026-04-27 21:02 15K
20260427T18Z_MSC_RDPS_FreezingRain-Accum3h_Sfc_RLatLon0.09_PT075H.grib2 2026-04-27 21:02 15K
20260427T18Z_MSC_RDPS_FreezingRain-Accum_Sfc_RLatLon0.09_PT075H.grib2 2026-04-27 21:02 214K
20260427T18Z_MSC_RDPS_GeopotentialHeight_IsbL-0001_RLatLon0.09_PT075H.grib2 2026-04-27 21:02 319K
20260427T18Z_MSC_RDPS_GeopotentialHeight_IsbL-0005_RLatLon0.09_PT075H.grib2 2026-04-27 21:02 339K
20260427T18Z_MSC_RDPS_GeopotentialHeight_IsbL-0010_RLatLon0.09_PT075H.grib2 2026-04-27 21:02 340K
20260427T18Z_MSC_RDPS_GeopotentialHeight_IsbL-0020_RLatLon0.09_PT075H.grib2 2026-04-27 21:02 307K
20260427T18Z_MSC_RDPS_GeopotentialHeight_IsbL-0030_RLatLon0.09_PT075H.grib2 2026-04-27 21:02 309K
20260427T18Z_MSC_RDPS_GeopotentialHeight_IsbL-0050_RLatLon0.09_PT075H.grib2 2026-04-27 21:02 342K
20260427T18Z_MSC_RDPS_GeopotentialHeight_IsbL-0100_RLatLon0.09_PT075H.grib2 2026-04-27 21:02 285K
20260427T18Z_MSC_RDPS_GeopotentialHeight_IsbL-0150_RLatLon0.09_PT075H.grib2 2026-04-27 21:02 228K
20260427T18Z_MSC_RDPS_GeopotentialHeight_IsbL-0175_RLatLon0.09_PT075H.grib2 2026-04-27 21:02 262K
20260427T18Z_MSC_RDPS_GeopotentialHeight_IsbL-0200_RLatLon0.09_PT075H.grib2 2026-04-27 21:02 265K
20260427T18Z_MSC_RDPS_GeopotentialHeight_IsbL-0225_RLatLon0.09_PT075H.grib2 2026-04-27 21:02 267K
20260427T18Z_MSC_RDPS_GeopotentialHeight_IsbL-0250_RLatLon0.09_PT075H.grib2 2026-04-27 21:02 268K
20260427T18Z_MSC_RDPS_GeopotentialHeight_IsbL-0275_RLatLon0.09_PT075H.grib2 2026-04-27 21:02 266K
20260427T18Z_MSC_RDPS_GeopotentialHeight_IsbL-0300_RLatLon0.09_PT075H.grib2 2026-04-27 21:02 266K
20260427T18Z_MSC_RDPS_GeopotentialHeight_IsbL-0350_RLatLon0.09_PT075H.grib2 2026-04-27 21:02 231K
20260427T18Z_MSC_RDPS_GeopotentialHeight_IsbL-0400_RLatLon0.09_PT075H.grib2 2026-04-27 21:02 227K
20260427T18Z_MSC_RDPS_GeopotentialHeight_IsbL-0450_RLatLon0.09_PT075H.grib2 2026-04-27 21:02 295K
20260427T18Z_MSC_RDPS_GeopotentialHeight_IsbL-0500_RLatLon0.09_PT075H.grib2 2026-04-27 21:02 291K
20260427T18Z_MSC_RDPS_GeopotentialHeight_IsbL-0550_RLatLon0.09_PT075H.grib2 2026-04-27 21:02 288K
20260427T18Z_MSC_RDPS_GeopotentialHeight_IsbL-0600_RLatLon0.09_PT075H.grib2 2026-04-27 21:02 257K
20260427T18Z_MSC_RDPS_GeopotentialHeight_IsbL-0650_RLatLon0.09_PT075H.grib2 2026-04-27 21:02 255K
20260427T18Z_MSC_RDPS_GeopotentialHeight_IsbL-0700_RLatLon0.09_PT075H.grib2 2026-04-27 21:02 336K
20260427T18Z_MSC_RDPS_GeopotentialHeight_IsbL-0750_RLatLon0.09_PT075H.grib2 2026-04-27 21:02 338K
20260427T18Z_MSC_RDPS_GeopotentialHeight_IsbL-0800_RLatLon0.09_PT075H.grib2 2026-04-27 21:02 345K
20260427T18Z_MSC_RDPS_GeopotentialHeight_IsbL-0850_RLatLon0.09_PT075H.grib2 2026-04-27 21:02 385K
20260427T18Z_MSC_RDPS_GeopotentialHeight_IsbL-0875_RLatLon0.09_PT075H.grib2 2026-04-27 21:02 390K
20260427T18Z_MSC_RDPS_GeopotentialHeight_IsbL-0900_RLatLon0.09_PT075H.grib2 2026-04-27 21:02 394K
20260427T18Z_MSC_RDPS_GeopotentialHeight_IsbL-0925_RLatLon0.09_PT075H.grib2 2026-04-27 21:02 397K
20260427T18Z_MSC_RDPS_GeopotentialHeight_IsbL-0950_RLatLon0.09_PT075H.grib2 2026-04-27 21:02 401K
20260427T18Z_MSC_RDPS_GeopotentialHeight_IsbL-0970_RLatLon0.09_PT075H.grib2 2026-04-27 21:02 408K
20260427T18Z_MSC_RDPS_GeopotentialHeight_IsbL-0985_RLatLon0.09_PT075H.grib2 2026-04-27 21:02 418K
20260427T18Z_MSC_RDPS_GeopotentialHeight_IsbL-1000_RLatLon0.09_PT075H.grib2 2026-04-27 21:02 431K
20260427T18Z_MSC_RDPS_GeopotentialHeight_IsbL-1015_RLatLon0.09_PT075H.grib2 2026-04-27 21:02 447K
20260427T18Z_MSC_RDPS_Humidex_Sfc_RLatLon0.09_PT075H.grib2 2026-04-27 21:02 2.4M
20260427T18Z_MSC_RDPS_IcePellets-Accum1h_Sfc_RLatLon0.09_PT075H.grib2 2026-04-27 21:02 2.9K
20260427T18Z_MSC_RDPS_IcePellets-Accum3h_Sfc_RLatLon0.09_PT075H.grib2 2026-04-27 21:02 3.4K
20260427T18Z_MSC_RDPS_IcePellets-Accum_Sfc_RLatLon0.09_PT075H.grib2 2026-04-27 21:02 37K
20260427T18Z_MSC_RDPS_KIndex_Sfc_RLatLon0.09_PT075H.grib2 2026-04-27 21:02 2.5M
20260427T18Z_MSC_RDPS_LatentHeatNetFlux_Sfc_RLatLon0.09_PT075H.grib2 2026-04-27 21:02 294K
20260427T18Z_MSC_RDPS_LiftedIndex-MU-VT_IsbL-0500_RLatLon0.09_PT075H.grib2 2026-04-27 21:02 2.4M
20260427T18Z_MSC_RDPS_NetLongwaveRadiationFlux-Accum_Sfc_RLatLon0.09_PT075H.grib2 2026-04-27 21:02 474K
20260427T18Z_MSC_RDPS_NetShortwaveRadiationFlux-Accum_Sfc_RLatLon0.09_PT075H.grib2 2026-04-27 21:02 632K
20260427T18Z_MSC_RDPS_PlanetaryBoundaryLayerHeight_Sfc_RLatLon0.09_PT075H.grib2 2026-04-27 21:02 1.0M
20260427T18Z_MSC_RDPS_Precip-Accum1h_Sfc_RLatLon0.09_PT075H.grib2 2026-04-27 21:02 1.2M
20260427T18Z_MSC_RDPS_Precip-Accum3h_Sfc_RLatLon0.09_PT075H.grib2 2026-04-27 21:02 1.3M
20260427T18Z_MSC_RDPS_Precip-Accum_Sfc_RLatLon0.09_PT075H.grib2 2026-04-27 21:02 2.0M
20260427T18Z_MSC_RDPS_PrecipRate_Sfc_RLatLon0.09_PT075H.grib2 2026-04-27 21:02 181K
20260427T18Z_MSC_RDPS_PrecipType-Instant_Sfc_RLatLon0.09_PT075H.grib2 2026-04-27 21:02 574K
20260427T18Z_MSC_RDPS_Pressure-Trend3h_Sfc_RLatLon0.09_PT075H.grib2 2026-04-27 21:02 1.2M
20260427T18Z_MSC_RDPS_Pressure_MSL_RLatLon0.09_PT075H.grib2 2026-04-27 21:02 328K
20260427T18Z_MSC_RDPS_Pressure_PVU-1.5_RLatLon0.09_PT075H.grib2 2026-04-27 21:02 2.3M
20260427T18Z_MSC_RDPS_Pressure_PVU-1_RLatLon0.09_PT075H.grib2 2026-04-27 21:02 2.4M
20260427T18Z_MSC_RDPS_Pressure_PVU-2_RLatLon0.09_PT075H.grib2 2026-04-27 21:02 2.4M
20260427T18Z_MSC_RDPS_Pressure_Sfc_RLatLon0.09_PT075H.grib2 2026-04-27 21:02 499K
20260427T18Z_MSC_RDPS_RadiativeTemp_Sfc_RLatLon0.09_PT075H.grib2 2026-04-27 21:02 326K
20260427T18Z_MSC_RDPS_Rain-Accum1h_Sfc_RLatLon0.09_PT075H.grib2 2026-04-27 21:02 534K
20260427T18Z_MSC_RDPS_Rain-Accum3h_Sfc_RLatLon0.09_PT075H.grib2 2026-04-27 21:02 666K
20260427T18Z_MSC_RDPS_Rain-Accum_Sfc_RLatLon0.09_PT075H.grib2 2026-04-27 21:02 1.6M
20260427T18Z_MSC_RDPS_RelativeHumidity_AGL-2m_RLatLon0.09_PT075H.grib2 2026-04-27 21:02 1.0M
20260427T18Z_MSC_RDPS_RelativeHumidity_IsbL-0010_RLatLon0.09_PT075H.grib2 2026-04-27 21:02 617K
20260427T18Z_MSC_RDPS_RelativeHumidity_IsbL-0020_RLatLon0.09_PT075H.grib2 2026-04-27 21:02 669K
20260427T18Z_MSC_RDPS_RelativeHumidity_IsbL-0030_RLatLon0.09_PT075H.grib2 2026-04-27 21:02 606K
20260427T18Z_MSC_RDPS_RelativeHumidity_IsbL-0050_RLatLon0.09_PT075H.grib2 2026-04-27 21:02 318K
20260427T18Z_MSC_RDPS_RelativeHumidity_IsbL-0100_RLatLon0.09_PT075H.grib2 2026-04-27 21:02 275K
20260427T18Z_MSC_RDPS_RelativeHumidity_IsbL-0150_RLatLon0.09_PT075H.grib2 2026-04-27 21:02 406K
20260427T18Z_MSC_RDPS_RelativeHumidity_IsbL-0175_RLatLon0.09_PT075H.grib2 2026-04-27 21:02 477K
20260427T18Z_MSC_RDPS_RelativeHumidity_IsbL-0200_RLatLon0.09_PT075H.grib2 2026-04-27 21:02 555K
20260427T18Z_MSC_RDPS_RelativeHumidity_IsbL-0225_RLatLon0.09_PT075H.grib2 2026-04-27 21:02 625K
20260427T18Z_MSC_RDPS_RelativeHumidity_IsbL-0250_RLatLon0.09_PT075H.grib2 2026-04-27 21:02 700K
20260427T18Z_MSC_RDPS_RelativeHumidity_IsbL-0275_RLatLon0.09_PT075H.grib2 2026-04-27 21:02 728K
20260427T18Z_MSC_RDPS_RelativeHumidity_IsbL-0300_RLatLon0.09_PT075H.grib2 2026-04-27 21:02 772K
20260427T18Z_MSC_RDPS_RelativeHumidity_IsbL-0350_RLatLon0.09_PT075H.grib2 2026-04-27 21:02 787K
20260427T18Z_MSC_RDPS_RelativeHumidity_IsbL-0400_RLatLon0.09_PT075H.grib2 2026-04-27 21:02 797K
20260427T18Z_MSC_RDPS_RelativeHumidity_IsbL-0450_RLatLon0.09_PT075H.grib2 2026-04-27 21:02 801K
20260427T18Z_MSC_RDPS_RelativeHumidity_IsbL-0500_RLatLon0.09_PT075H.grib2 2026-04-27 21:02 807K
20260427T18Z_MSC_RDPS_RelativeHumidity_IsbL-0550_RLatLon0.09_PT075H.grib2 2026-04-27 21:02 825K
20260427T18Z_MSC_RDPS_RelativeHumidity_IsbL-0600_RLatLon0.09_PT075H.grib2 2026-04-27 21:02 851K
20260427T18Z_MSC_RDPS_RelativeHumidity_IsbL-0650_RLatLon0.09_PT075H.grib2 2026-04-27 21:02 869K
20260427T18Z_MSC_RDPS_RelativeHumidity_IsbL-0700_RLatLon0.09_PT075H.grib2 2026-04-27 21:02 893K
20260427T18Z_MSC_RDPS_RelativeHumidity_IsbL-0750_RLatLon0.09_PT075H.grib2 2026-04-27 21:02 940K
20260427T18Z_MSC_RDPS_RelativeHumidity_IsbL-0800_RLatLon0.09_PT075H.grib2 2026-04-27 21:02 1.0M
20260427T18Z_MSC_RDPS_RelativeHumidity_IsbL-0850_RLatLon0.09_PT075H.grib2 2026-04-27 21:02 1.0M
20260427T18Z_MSC_RDPS_RelativeHumidity_IsbL-0875_RLatLon0.09_PT075H.grib2 2026-04-27 21:02 1.1M
20260427T18Z_MSC_RDPS_RelativeHumidity_IsbL-0900_RLatLon0.09_PT075H.grib2 2026-04-27 21:02 1.1M
20260427T18Z_MSC_RDPS_RelativeHumidity_IsbL-0925_RLatLon0.09_PT075H.grib2 2026-04-27 21:02 1.1M
20260427T18Z_MSC_RDPS_RelativeHumidity_IsbL-0950_RLatLon0.09_PT075H.grib2 2026-04-27 21:02 1.1M
20260427T18Z_MSC_RDPS_RelativeHumidity_IsbL-0970_RLatLon0.09_PT075H.grib2 2026-04-27 21:02 1.0M
20260427T18Z_MSC_RDPS_RelativeHumidity_IsbL-0985_RLatLon0.09_PT075H.grib2 2026-04-27 21:02 1.0M
20260427T18Z_MSC_RDPS_RelativeHumidity_IsbL-1000_RLatLon0.09_PT075H.grib2 2026-04-27 21:02 1.0M
20260427T18Z_MSC_RDPS_RelativeHumidity_IsbL-1015_RLatLon0.09_PT075H.grib2 2026-04-27 21:02 1.0M
20260427T18Z_MSC_RDPS_Runoff-Accum_Sfc_RLatLon0.09_PT075H.grib2 2026-04-27 21:02 64K
20260427T18Z_MSC_RDPS_SWEATIndex_Sfc_RLatLon0.09_PT075H.grib2 2026-04-27 21:02 2.4M
20260427T18Z_MSC_RDPS_SeeingIndex_EAtm_RLatLon0.09_PT075H.grib2 2026-04-27 21:02 1.0M
20260427T18Z_MSC_RDPS_SensibleHeatNetFlux_Sfc_RLatLon0.09_PT075H.grib2 2026-04-27 21:02 352K
20260427T18Z_MSC_RDPS_ShowalterIndex_IsbL-0500_RLatLon0.09_PT075H.grib2 2026-04-27 21:02 2.6M
20260427T18Z_MSC_RDPS_SkyTransparencyIndex_EAtm_RLatLon0.09_PT075H.grib2 2026-04-27 21:02 700K
20260427T18Z_MSC_RDPS_Snow-Accum1h_Sfc_RLatLon0.09_PT075H.grib2 2026-04-27 21:02 533K
20260427T18Z_MSC_RDPS_Snow-Accum3h_Sfc_RLatLon0.09_PT075H.grib2 2026-04-27 21:02 460K
20260427T18Z_MSC_RDPS_Snow-Accum_Sfc_RLatLon0.09_PT075H.grib2 2026-04-27 21:02 825K
20260427T18Z_MSC_RDPS_SnowDensity_Sfc_RLatLon0.09_PT075H.grib2 2026-04-27 21:02 184K
20260427T18Z_MSC_RDPS_SnowDepth_Sfc_RLatLon0.09_PT075H.grib2 2026-04-27 21:02 688K
20260427T18Z_MSC_RDPS_SoilTemp_DBS-0to10cm_RLatLon0.09_PT075H.grib2 2026-04-27 21:02 245K
20260427T18Z_MSC_RDPS_SoilTemp_Sfc_RLatLon0.09_PT075H.grib2 2026-04-27 21:02 292K
20260427T18Z_MSC_RDPS_SoilVolumetricIceContent_Sfc_RLatLon0.09_PT075H.grib2 2026-04-27 21:02 163K
20260427T18Z_MSC_RDPS_SoilVolumetricWaterContent_DBS-0to10cm_RLatLon0.09_PT075H.grib2 2026-04-27 21:02 269K
20260427T18Z_MSC_RDPS_SoilVolumetricWaterContent_DBS-0to1cm_RLatLon0.09_PT075H.grib2 2026-04-27 21:02 338K
20260427T18Z_MSC_RDPS_SpecificHumidity_AGL-120m_RLatLon0.09_PT075H.grib2 2026-04-27 21:02 497K
20260427T18Z_MSC_RDPS_SpecificHumidity_AGL-2m_RLatLon0.09_PT075H.grib2 2026-04-27 21:02 663K
20260427T18Z_MSC_RDPS_SpecificHumidity_AGL-40m_RLatLon0.09_PT075H.grib2 2026-04-27 21:02 501K
20260427T18Z_MSC_RDPS_SpecificHumidity_AGL-80m_RLatLon0.09_PT075H.grib2 2026-04-27 21:02 498K
20260427T18Z_MSC_RDPS_SpecificHumidity_IsbL-0001_RLatLon0.09_PT075H.grib2 2026-04-27 21:02 364K
20260427T18Z_MSC_RDPS_SpecificHumidity_IsbL-0005_RLatLon0.09_PT075H.grib2 2026-04-27 21:02 352K
20260427T18Z_MSC_RDPS_SpecificHumidity_IsbL-0010_RLatLon0.09_PT075H.grib2 2026-04-27 21:02 391K
20260427T18Z_MSC_RDPS_SpecificHumidity_IsbL-0020_RLatLon0.09_PT075H.grib2 2026-04-27 21:02 374K
20260427T18Z_MSC_RDPS_SpecificHumidity_IsbL-0030_RLatLon0.09_PT075H.grib2 2026-04-27 21:02 466K
20260427T18Z_MSC_RDPS_SpecificHumidity_IsbL-0050_RLatLon0.09_PT075H.grib2 2026-04-27 21:02 443K
20260427T18Z_MSC_RDPS_SpecificHumidity_IsbL-0100_RLatLon0.09_PT075H.grib2 2026-04-27 21:02 415K
20260427T18Z_MSC_RDPS_SpecificHumidity_IsbL-0150_RLatLon0.09_PT075H.grib2 2026-04-27 21:02 452K
20260427T18Z_MSC_RDPS_SpecificHumidity_IsbL-0175_RLatLon0.09_PT075H.grib2 2026-04-27 21:02 452K
20260427T18Z_MSC_RDPS_SpecificHumidity_IsbL-0200_RLatLon0.09_PT075H.grib2 2026-04-27 21:02 468K
20260427T18Z_MSC_RDPS_SpecificHumidity_IsbL-0225_RLatLon0.09_PT075H.grib2 2026-04-27 21:02 471K
20260427T18Z_MSC_RDPS_SpecificHumidity_IsbL-0250_RLatLon0.09_PT075H.grib2 2026-04-27 21:02 547K
20260427T18Z_MSC_RDPS_SpecificHumidity_IsbL-0275_RLatLon0.09_PT075H.grib2 2026-04-27 21:02 479K
20260427T18Z_MSC_RDPS_SpecificHumidity_IsbL-0300_RLatLon0.09_PT075H.grib2 2026-04-27 21:02 454K
20260427T18Z_MSC_RDPS_SpecificHumidity_IsbL-0350_RLatLon0.09_PT075H.grib2 2026-04-27 21:02 444K
20260427T18Z_MSC_RDPS_SpecificHumidity_IsbL-0400_RLatLon0.09_PT075H.grib2 2026-04-27 21:02 522K
20260427T18Z_MSC_RDPS_SpecificHumidity_IsbL-0450_RLatLon0.09_PT075H.grib2 2026-04-27 21:02 458K
20260427T18Z_MSC_RDPS_SpecificHumidity_IsbL-0500_RLatLon0.09_PT075H.grib2 2026-04-27 21:02 510K
20260427T18Z_MSC_RDPS_SpecificHumidity_IsbL-0550_RLatLon0.09_PT075H.grib2 2026-04-27 21:02 585K
20260427T18Z_MSC_RDPS_SpecificHumidity_IsbL-0600_RLatLon0.09_PT075H.grib2 2026-04-27 21:02 643K
20260427T18Z_MSC_RDPS_SpecificHumidity_IsbL-0650_RLatLon0.09_PT075H.grib2 2026-04-27 21:02 563K
20260427T18Z_MSC_RDPS_SpecificHumidity_IsbL-0700_RLatLon0.09_PT075H.grib2 2026-04-27 21:02 608K
20260427T18Z_MSC_RDPS_SpecificHumidity_IsbL-0750_RLatLon0.09_PT075H.grib2 2026-04-27 21:02 664K
20260427T18Z_MSC_RDPS_SpecificHumidity_IsbL-0800_RLatLon0.09_PT075H.grib2 2026-04-27 21:02 738K
20260427T18Z_MSC_RDPS_SpecificHumidity_IsbL-0850_RLatLon0.09_PT075H.grib2 2026-04-27 21:02 810K
20260427T18Z_MSC_RDPS_SpecificHumidity_IsbL-0875_RLatLon0.09_PT075H.grib2 2026-04-27 21:02 838K
20260427T18Z_MSC_RDPS_SpecificHumidity_IsbL-0900_RLatLon0.09_PT075H.grib2 2026-04-27 21:02 714K
20260427T18Z_MSC_RDPS_SpecificHumidity_IsbL-0925_RLatLon0.09_PT075H.grib2 2026-04-27 21:02 714K
20260427T18Z_MSC_RDPS_SpecificHumidity_IsbL-0950_RLatLon0.09_PT075H.grib2 2026-04-27 21:02 713K
20260427T18Z_MSC_RDPS_SpecificHumidity_IsbL-0970_RLatLon0.09_PT075H.grib2 2026-04-27 21:02 702K
20260427T18Z_MSC_RDPS_SpecificHumidity_IsbL-0985_RLatLon0.09_PT075H.grib2 2026-04-27 21:02 692K
20260427T18Z_MSC_RDPS_SpecificHumidity_IsbL-1000_RLatLon0.09_PT075H.grib2 2026-04-27 21:02 685K
20260427T18Z_MSC_RDPS_SpecificHumidity_IsbL-1015_RLatLon0.09_PT075H.grib2 2026-04-27 21:02 674K
20260427T18Z_MSC_RDPS_SpecificHumidity_Sfc_RLatLon0.09_PT075H.grib2 2026-04-27 21:02 341K
20260427T18Z_MSC_RDPS_StormRelativeHelicity_EtaL-10000_RLatLon0.09_PT075H.grib2 2026-04-27 21:02 1.1M
20260427T18Z_MSC_RDPS_StormSeverityIndex_EtaL-10000_RLatLon0.09_PT075H.grib2 2026-04-27 21:02 1.2M
20260427T18Z_MSC_RDPS_Thickness_IsbL-0850to0700_RLatLon0.09_PT075H.grib2 2026-04-27 21:02 177K
20260427T18Z_MSC_RDPS_Thickness_IsbL-1000to0500_RLatLon0.09_PT075H.grib2 2026-04-27 21:02 138K
20260427T18Z_MSC_RDPS_Thickness_IsbL-1000to0850_RLatLon0.09_PT075H.grib2 2026-04-27 21:02 188K
20260427T18Z_MSC_RDPS_TotalCloudCover_Sfc_RLatLon0.09_PT075H.grib2 2026-04-27 21:02 657K
20260427T18Z_MSC_RDPS_TotalTotalsIndex_Sfc_RLatLon0.09_PT075H.grib2 2026-04-27 21:02 2.4M
20260427T18Z_MSC_RDPS_UVIndex-ClearSky_Sfc_RLatLon0.09_PT075H.grib2 2026-04-27 21:02 200K
20260427T18Z_MSC_RDPS_UVIndex_Sfc_RLatLon0.09_PT075H.grib2 2026-04-27 21:02 467K
20260427T18Z_MSC_RDPS_UpwardLongwaveRadiationFlux_NTAtm_RLatLon0.09_PT075H.grib2 2026-04-27 21:02 388K
20260427T18Z_MSC_RDPS_UpwardShortwaveRadiationFlux_NTAtm_RLatLon0.09_PT075H.grib2 2026-04-27 21:02 503K
20260427T18Z_MSC_RDPS_VerticalVelocity_IsbL-0250_RLatLon0.09_PT075H.grib2 2026-04-27 21:02 431K
20260427T18Z_MSC_RDPS_VerticalVelocity_IsbL-0500_RLatLon0.09_PT075H.grib2 2026-04-27 21:02 545K
20260427T18Z_MSC_RDPS_VerticalVelocity_IsbL-0700_RLatLon0.09_PT075H.grib2 2026-04-27 21:02 596K
20260427T18Z_MSC_RDPS_VerticalVelocity_IsbL-0850_RLatLon0.09_PT075H.grib2 2026-04-27 21:02 520K
20260427T18Z_MSC_RDPS_VerticalWindShear_EtaL-6500_RLatLon0.09_PT075H.grib2 2026-04-27 21:02 1.2M
20260427T18Z_MSC_RDPS_WindChill_Sfc_RLatLon0.09_PT075H.grib2 2026-04-27 21:02 1.1M
20260427T18Z_MSC_RDPS_WindDir_AGL-10m_RLatLon0.09_PT075H.grib2 2026-04-27 21:02 968K
20260427T18Z_MSC_RDPS_WindDir_AGL-120m_RLatLon0.09_PT075H.grib2 2026-04-27 21:02 618K
20260427T18Z_MSC_RDPS_WindDir_AGL-40m_RLatLon0.09_PT075H.grib2 2026-04-27 21:02 638K
20260427T18Z_MSC_RDPS_WindDir_AGL-80m_RLatLon0.09_PT075H.grib2 2026-04-27 21:02 627K
20260427T18Z_MSC_RDPS_WindDir_IsbL-0001_RLatLon0.09_PT075H.grib2 2026-04-27 21:02 290K
20260427T18Z_MSC_RDPS_WindDir_IsbL-0005_RLatLon0.09_PT075H.grib2 2026-04-27 21:02 361K
20260427T18Z_MSC_RDPS_WindDir_IsbL-0010_RLatLon0.09_PT075H.grib2 2026-04-27 21:02 376K
20260427T18Z_MSC_RDPS_WindDir_IsbL-0020_RLatLon0.09_PT075H.grib2 2026-04-27 21:02 418K
20260427T18Z_MSC_RDPS_WindDir_IsbL-0030_RLatLon0.09_PT075H.grib2 2026-04-27 21:02 406K
20260427T18Z_MSC_RDPS_WindDir_IsbL-0050_RLatLon0.09_PT075H.grib2 2026-04-27 21:02 418K
20260427T18Z_MSC_RDPS_WindDir_IsbL-0100_RLatLon0.09_PT075H.grib2 2026-04-27 21:02 428K
20260427T18Z_MSC_RDPS_WindDir_IsbL-0150_RLatLon0.09_PT075H.grib2 2026-04-27 21:02 415K
20260427T18Z_MSC_RDPS_WindDir_IsbL-0175_RLatLon0.09_PT075H.grib2 2026-04-27 21:02 444K
20260427T18Z_MSC_RDPS_WindDir_IsbL-0200_RLatLon0.09_PT075H.grib2 2026-04-27 21:02 459K
20260427T18Z_MSC_RDPS_WindDir_IsbL-0225_RLatLon0.09_PT075H.grib2 2026-04-27 21:02 463K
20260427T18Z_MSC_RDPS_WindDir_IsbL-0250_RLatLon0.09_PT075H.grib2 2026-04-27 21:02 462K
20260427T18Z_MSC_RDPS_WindDir_IsbL-0275_RLatLon0.09_PT075H.grib2 2026-04-27 21:02 483K
20260427T18Z_MSC_RDPS_WindDir_IsbL-0300_RLatLon0.09_PT075H.grib2 2026-04-27 21:02 479K
20260427T18Z_MSC_RDPS_WindDir_IsbL-0350_RLatLon0.09_PT075H.grib2 2026-04-27 21:02 499K
20260427T18Z_MSC_RDPS_WindDir_IsbL-0400_RLatLon0.09_PT075H.grib2 2026-04-27 21:02 508K
20260427T18Z_MSC_RDPS_WindDir_IsbL-0450_RLatLon0.09_PT075H.grib2 2026-04-27 21:02 517K
20260427T18Z_MSC_RDPS_WindDir_IsbL-0500_RLatLon0.09_PT075H.grib2 2026-04-27 21:02 535K
20260427T18Z_MSC_RDPS_WindDir_IsbL-0550_RLatLon0.09_PT075H.grib2 2026-04-27 21:02 556K
20260427T18Z_MSC_RDPS_WindDir_IsbL-0600_RLatLon0.09_PT075H.grib2 2026-04-27 21:02 591K
20260427T18Z_MSC_RDPS_WindDir_IsbL-0650_RLatLon0.09_PT075H.grib2 2026-04-27 21:02 634K
20260427T18Z_MSC_RDPS_WindDir_IsbL-0700_RLatLon0.09_PT075H.grib2 2026-04-27 21:02 683K
20260427T18Z_MSC_RDPS_WindDir_IsbL-0750_RLatLon0.09_PT075H.grib2 2026-04-27 21:02 738K
20260427T18Z_MSC_RDPS_WindDir_IsbL-0800_RLatLon0.09_PT075H.grib2 2026-04-27 21:02 796K
20260427T18Z_MSC_RDPS_WindDir_IsbL-0850_RLatLon0.09_PT075H.grib2 2026-04-27 21:02 864K
20260427T18Z_MSC_RDPS_WindDir_IsbL-0875_RLatLon0.09_PT075H.grib2 2026-04-27 21:02 893K
20260427T18Z_MSC_RDPS_WindDir_IsbL-0900_RLatLon0.09_PT075H.grib2 2026-04-27 21:02 913K
20260427T18Z_MSC_RDPS_WindDir_IsbL-0925_RLatLon0.09_PT075H.grib2 2026-04-27 21:02 925K
20260427T18Z_MSC_RDPS_WindDir_IsbL-0950_RLatLon0.09_PT075H.grib2 2026-04-27 21:02 926K
20260427T18Z_MSC_RDPS_WindDir_IsbL-0970_RLatLon0.09_PT075H.grib2 2026-04-27 21:02 931K
20260427T18Z_MSC_RDPS_WindDir_IsbL-0985_RLatLon0.09_PT075H.grib2 2026-04-27 21:02 938K
20260427T18Z_MSC_RDPS_WindDir_IsbL-1000_RLatLon0.09_PT075H.grib2 2026-04-27 21:02 949K
20260427T18Z_MSC_RDPS_WindDir_IsbL-1015_RLatLon0.09_PT075H.grib2 2026-04-27 21:02 962K
20260427T18Z_MSC_RDPS_WindGust-Max_AGL-10m_RLatLon0.09_PT075H.grib2 2026-04-27 21:02 1.0M
20260427T18Z_MSC_RDPS_WindGust-Min_AGL-10m_RLatLon0.09_PT075H.grib2 2026-04-27 21:02 965K
20260427T18Z_MSC_RDPS_WindGust_AGL-10m_RLatLon0.09_PT075H.grib2 2026-04-27 21:02 973K
20260427T18Z_MSC_RDPS_WindSpeed_AGL-10m_RLatLon0.09_PT075H.grib2 2026-04-27 21:02 831K
20260427T18Z_MSC_RDPS_WindSpeed_AGL-120m_RLatLon0.09_PT075H.grib2 2026-04-27 21:02 543K
20260427T18Z_MSC_RDPS_WindSpeed_AGL-40m_RLatLon0.09_PT075H.grib2 2026-04-27 21:02 533K
20260427T18Z_MSC_RDPS_WindSpeed_AGL-80m_RLatLon0.09_PT075H.grib2 2026-04-27 21:02 543K
20260427T18Z_MSC_RDPS_WindSpeed_IsbL-0001_RLatLon0.09_PT075H.grib2 2026-04-27 21:02 333K
20260427T18Z_MSC_RDPS_WindSpeed_IsbL-0005_RLatLon0.09_PT075H.grib2 2026-04-27 21:02 384K
20260427T18Z_MSC_RDPS_WindSpeed_IsbL-0010_RLatLon0.09_PT075H.grib2 2026-04-27 21:02 403K
20260427T18Z_MSC_RDPS_WindSpeed_IsbL-0020_RLatLon0.09_PT075H.grib2 2026-04-27 21:02 330K
20260427T18Z_MSC_RDPS_WindSpeed_IsbL-0030_RLatLon0.09_PT075H.grib2 2026-04-27 21:02 328K
20260427T18Z_MSC_RDPS_WindSpeed_IsbL-0050_RLatLon0.09_PT075H.grib2 2026-04-27 21:02 454K
20260427T18Z_MSC_RDPS_WindSpeed_IsbL-0100_RLatLon0.09_PT075H.grib2 2026-04-27 21:02 475K
20260427T18Z_MSC_RDPS_WindSpeed_IsbL-0150_RLatLon0.09_PT075H.grib2 2026-04-27 21:02 381K
20260427T18Z_MSC_RDPS_WindSpeed_IsbL-0175_RLatLon0.09_PT075H.grib2 2026-04-27 21:02 427K
20260427T18Z_MSC_RDPS_WindSpeed_IsbL-0200_RLatLon0.09_PT075H.grib2 2026-04-27 21:02 444K
20260427T18Z_MSC_RDPS_WindSpeed_IsbL-0225_RLatLon0.09_PT075H.grib2 2026-04-27 21:02 451K
20260427T18Z_MSC_RDPS_WindSpeed_IsbL-0250_RLatLon0.09_PT075H.grib2 2026-04-27 21:02 455K
20260427T18Z_MSC_RDPS_WindSpeed_IsbL-0275_RLatLon0.09_PT075H.grib2 2026-04-27 21:02 472K
20260427T18Z_MSC_RDPS_WindSpeed_IsbL-0300_RLatLon0.09_PT075H.grib2 2026-04-27 21:02 469K
20260427T18Z_MSC_RDPS_WindSpeed_IsbL-0350_RLatLon0.09_PT075H.grib2 2026-04-27 21:02 479K
20260427T18Z_MSC_RDPS_WindSpeed_IsbL-0400_RLatLon0.09_PT075H.grib2 2026-04-27 21:02 481K
20260427T18Z_MSC_RDPS_WindSpeed_IsbL-0450_RLatLon0.09_PT075H.grib2 2026-04-27 21:02 465K
20260427T18Z_MSC_RDPS_WindSpeed_IsbL-0500_RLatLon0.09_PT075H.grib2 2026-04-27 21:02 467K
20260427T18Z_MSC_RDPS_WindSpeed_IsbL-0550_RLatLon0.09_PT075H.grib2 2026-04-27 21:02 467K
20260427T18Z_MSC_RDPS_WindSpeed_IsbL-0600_RLatLon0.09_PT075H.grib2 2026-04-27 21:02 595K
20260427T18Z_MSC_RDPS_WindSpeed_IsbL-0650_RLatLon0.09_PT075H.grib2 2026-04-27 21:02 615K
20260427T18Z_MSC_RDPS_WindSpeed_IsbL-0700_RLatLon0.09_PT075H.grib2 2026-04-27 21:02 683K
20260427T18Z_MSC_RDPS_WindSpeed_IsbL-0750_RLatLon0.09_PT075H.grib2 2026-04-27 21:02 712K
20260427T18Z_MSC_RDPS_WindSpeed_IsbL-0800_RLatLon0.09_PT075H.grib2 2026-04-27 21:02 753K
20260427T18Z_MSC_RDPS_WindSpeed_IsbL-0850_RLatLon0.09_PT075H.grib2 2026-04-27 21:02 807K
20260427T18Z_MSC_RDPS_WindSpeed_IsbL-0875_RLatLon0.09_PT075H.grib2 2026-04-27 21:02 829K
20260427T18Z_MSC_RDPS_WindSpeed_IsbL-0900_RLatLon0.09_PT075H.grib2 2026-04-27 21:02 847K
20260427T18Z_MSC_RDPS_WindSpeed_IsbL-0925_RLatLon0.09_PT075H.grib2 2026-04-27 21:02 858K
20260427T18Z_MSC_RDPS_WindSpeed_IsbL-0950_RLatLon0.09_PT075H.grib2 2026-04-27 21:02 857K
20260427T18Z_MSC_RDPS_WindSpeed_IsbL-0970_RLatLon0.09_PT075H.grib2 2026-04-27 21:02 857K
20260427T18Z_MSC_RDPS_WindSpeed_IsbL-0985_RLatLon0.09_PT075H.grib2 2026-04-27 21:02 849K
20260427T18Z_MSC_RDPS_WindSpeed_IsbL-1000_RLatLon0.09_PT075H.grib2 2026-04-27 21:02 844K
20260427T18Z_MSC_RDPS_WindSpeed_IsbL-1015_RLatLon0.09_PT075H.grib2 2026-04-27 21:02 833K
20260427T18Z_MSC_RDPS_WindU_AGL-10m_RLatLon0.09_PT075H.grib2 2026-04-27 21:02 431K
20260427T18Z_MSC_RDPS_WindU_AGL-120m_RLatLon0.09_PT075H.grib2 2026-04-27 21:02 415K
20260427T18Z_MSC_RDPS_WindU_AGL-40m_RLatLon0.09_PT075H.grib2 2026-04-27 21:02 534K
20260427T18Z_MSC_RDPS_WindU_AGL-80m_RLatLon0.09_PT075H.grib2 2026-04-27 21:02 533K
20260427T18Z_MSC_RDPS_WindU_IsbL-0001_RLatLon0.09_PT075H.grib2 2026-04-27 21:02 245K
20260427T18Z_MSC_RDPS_WindU_IsbL-0005_RLatLon0.09_PT075H.grib2 2026-04-27 21:02 287K
20260427T18Z_MSC_RDPS_WindU_IsbL-0010_RLatLon0.09_PT075H.grib2 2026-04-27 21:02 301K
20260427T18Z_MSC_RDPS_WindU_IsbL-0020_RLatLon0.09_PT075H.grib2 2026-04-27 21:02 358K
20260427T18Z_MSC_RDPS_WindU_IsbL-0030_RLatLon0.09_PT075H.grib2 2026-04-27 21:02 319K
20260427T18Z_MSC_RDPS_WindU_IsbL-0050_RLatLon0.09_PT075H.grib2 2026-04-27 21:02 343K
20260427T18Z_MSC_RDPS_WindU_IsbL-0100_RLatLon0.09_PT075H.grib2 2026-04-27 21:02 336K
20260427T18Z_MSC_RDPS_WindU_IsbL-0150_RLatLon0.09_PT075H.grib2 2026-04-27 21:02 399K
20260427T18Z_MSC_RDPS_WindU_IsbL-0175_RLatLon0.09_PT075H.grib2 2026-04-27 21:02 421K
20260427T18Z_MSC_RDPS_WindU_IsbL-0200_RLatLon0.09_PT075H.grib2 2026-04-27 21:02 340K
20260427T18Z_MSC_RDPS_WindU_IsbL-0225_RLatLon0.09_PT075H.grib2 2026-04-27 21:02 344K
20260427T18Z_MSC_RDPS_WindU_IsbL-0250_RLatLon0.09_PT075H.grib2 2026-04-27 21:02 345K
20260427T18Z_MSC_RDPS_WindU_IsbL-0275_RLatLon0.09_PT075H.grib2 2026-04-27 21:02 360K
20260427T18Z_MSC_RDPS_WindU_IsbL-0300_RLatLon0.09_PT075H.grib2 2026-04-27 21:02 355K
20260427T18Z_MSC_RDPS_WindU_IsbL-0350_RLatLon0.09_PT075H.grib2 2026-04-27 21:02 364K
20260427T18Z_MSC_RDPS_WindU_IsbL-0400_RLatLon0.09_PT075H.grib2 2026-04-27 21:02 471K
20260427T18Z_MSC_RDPS_WindU_IsbL-0450_RLatLon0.09_PT075H.grib2 2026-04-27 21:02 471K
20260427T18Z_MSC_RDPS_WindU_IsbL-0500_RLatLon0.09_PT075H.grib2 2026-04-27 21:02 474K
20260427T18Z_MSC_RDPS_WindU_IsbL-0550_RLatLon0.09_PT075H.grib2 2026-04-27 21:02 474K
20260427T18Z_MSC_RDPS_WindU_IsbL-0600_RLatLon0.09_PT075H.grib2 2026-04-27 21:02 466K
20260427T18Z_MSC_RDPS_WindU_IsbL-0650_RLatLon0.09_PT075H.grib2 2026-04-27 21:02 484K
20260427T18Z_MSC_RDPS_WindU_IsbL-0700_RLatLon0.09_PT075H.grib2 2026-04-27 21:02 507K
20260427T18Z_MSC_RDPS_WindU_IsbL-0750_RLatLon0.09_PT075H.grib2 2026-04-27 21:02 659K
20260427T18Z_MSC_RDPS_WindU_IsbL-0800_RLatLon0.09_PT075H.grib2 2026-04-27 21:02 699K
20260427T18Z_MSC_RDPS_WindU_IsbL-0850_RLatLon0.09_PT075H.grib2 2026-04-27 21:02 617K
20260427T18Z_MSC_RDPS_WindU_IsbL-0875_RLatLon0.09_PT075H.grib2 2026-04-27 21:02 636K
20260427T18Z_MSC_RDPS_WindU_IsbL-0900_RLatLon0.09_PT075H.grib2 2026-04-27 21:02 650K
20260427T18Z_MSC_RDPS_WindU_IsbL-0925_RLatLon0.09_PT075H.grib2 2026-04-27 21:02 657K
20260427T18Z_MSC_RDPS_WindU_IsbL-0950_RLatLon0.09_PT075H.grib2 2026-04-27 21:02 654K
20260427T18Z_MSC_RDPS_WindU_IsbL-0970_RLatLon0.09_PT075H.grib2 2026-04-27 21:02 653K
20260427T18Z_MSC_RDPS_WindU_IsbL-0985_RLatLon0.09_PT075H.grib2 2026-04-27 21:02 650K
20260427T18Z_MSC_RDPS_WindU_IsbL-1000_RLatLon0.09_PT075H.grib2 2026-04-27 21:02 786K
20260427T18Z_MSC_RDPS_WindU_IsbL-1015_RLatLon0.09_PT075H.grib2 2026-04-27 21:02 778K
20260427T18Z_MSC_RDPS_WindV_AGL-10m_RLatLon0.09_PT075H.grib2 2026-04-27 21:02 428K
20260427T18Z_MSC_RDPS_WindV_AGL-120m_RLatLon0.09_PT075H.grib2 2026-04-27 21:02 527K
20260427T18Z_MSC_RDPS_WindV_AGL-40m_RLatLon0.09_PT075H.grib2 2026-04-27 21:02 528K
20260427T18Z_MSC_RDPS_WindV_AGL-80m_RLatLon0.09_PT075H.grib2 2026-04-27 21:02 527K
20260427T18Z_MSC_RDPS_WindV_IsbL-0001_RLatLon0.09_PT075H.grib2 2026-04-27 21:02 246K
20260427T18Z_MSC_RDPS_WindV_IsbL-0005_RLatLon0.09_PT075H.grib2 2026-04-27 21:02 288K
20260427T18Z_MSC_RDPS_WindV_IsbL-0010_RLatLon0.09_PT075H.grib2 2026-04-27 21:02 304K
20260427T18Z_MSC_RDPS_WindV_IsbL-0020_RLatLon0.09_PT075H.grib2 2026-04-27 21:02 322K
20260427T18Z_MSC_RDPS_WindV_IsbL-0030_RLatLon0.09_PT075H.grib2 2026-04-27 21:02 322K
20260427T18Z_MSC_RDPS_WindV_IsbL-0050_RLatLon0.09_PT075H.grib2 2026-04-27 21:02 345K
20260427T18Z_MSC_RDPS_WindV_IsbL-0100_RLatLon0.09_PT075H.grib2 2026-04-27 21:02 426K
20260427T18Z_MSC_RDPS_WindV_IsbL-0150_RLatLon0.09_PT075H.grib2 2026-04-27 21:02 395K
20260427T18Z_MSC_RDPS_WindV_IsbL-0175_RLatLon0.09_PT075H.grib2 2026-04-27 21:02 419K
20260427T18Z_MSC_RDPS_WindV_IsbL-0200_RLatLon0.09_PT075H.grib2 2026-04-27 21:02 338K
20260427T18Z_MSC_RDPS_WindV_IsbL-0225_RLatLon0.09_PT075H.grib2 2026-04-27 21:02 342K
20260427T18Z_MSC_RDPS_WindV_IsbL-0250_RLatLon0.09_PT075H.grib2 2026-04-27 21:02 343K
20260427T18Z_MSC_RDPS_WindV_IsbL-0275_RLatLon0.09_PT075H.grib2 2026-04-27 21:02 459K
20260427T18Z_MSC_RDPS_WindV_IsbL-0300_RLatLon0.09_PT075H.grib2 2026-04-27 21:02 454K
20260427T18Z_MSC_RDPS_WindV_IsbL-0350_RLatLon0.09_PT075H.grib2 2026-04-27 21:02 465K
20260427T18Z_MSC_RDPS_WindV_IsbL-0400_RLatLon0.09_PT075H.grib2 2026-04-27 21:02 466K
20260427T18Z_MSC_RDPS_WindV_IsbL-0450_RLatLon0.09_PT075H.grib2 2026-04-27 21:02 467K
20260427T18Z_MSC_RDPS_WindV_IsbL-0500_RLatLon0.09_PT075H.grib2 2026-04-27 21:02 468K
20260427T18Z_MSC_RDPS_WindV_IsbL-0550_RLatLon0.09_PT075H.grib2 2026-04-27 21:02 471K
20260427T18Z_MSC_RDPS_WindV_IsbL-0600_RLatLon0.09_PT075H.grib2 2026-04-27 21:02 462K
20260427T18Z_MSC_RDPS_WindV_IsbL-0650_RLatLon0.09_PT075H.grib2 2026-04-27 21:02 481K
20260427T18Z_MSC_RDPS_WindV_IsbL-0700_RLatLon0.09_PT075H.grib2 2026-04-27 21:02 503K
20260427T18Z_MSC_RDPS_WindV_IsbL-0750_RLatLon0.09_PT075H.grib2 2026-04-27 21:02 653K
20260427T18Z_MSC_RDPS_WindV_IsbL-0800_RLatLon0.09_PT075H.grib2 2026-04-27 21:02 691K
20260427T18Z_MSC_RDPS_WindV_IsbL-0850_RLatLon0.09_PT075H.grib2 2026-04-27 21:02 744K
20260427T18Z_MSC_RDPS_WindV_IsbL-0875_RLatLon0.09_PT075H.grib2 2026-04-27 21:02 631K
20260427T18Z_MSC_RDPS_WindV_IsbL-0900_RLatLon0.09_PT075H.grib2 2026-04-27 21:02 646K
20260427T18Z_MSC_RDPS_WindV_IsbL-0925_RLatLon0.09_PT075H.grib2 2026-04-27 21:02 793K
20260427T18Z_MSC_RDPS_WindV_IsbL-0950_RLatLon0.09_PT075H.grib2 2026-04-27 21:02 790K
20260427T18Z_MSC_RDPS_WindV_IsbL-0970_RLatLon0.09_PT075H.grib2 2026-04-27 21:02 788K
20260427T18Z_MSC_RDPS_WindV_IsbL-0985_RLatLon0.09_PT075H.grib2 2026-04-27 21:02 784K
20260427T18Z_MSC_RDPS_WindV_IsbL-1000_RLatLon0.09_PT075H.grib2 2026-04-27 21:02 825K
20260427T18Z_MSC_RDPS_WindV_IsbL-1015_RLatLon0.09_PT075H.grib2 2026-04-27 21:02 817K